Regional Weather Roundup
Issued by NWS Charleston, WV

Home | Current Version | Previous Version | Graphics & Text | Print | Product List | Glossary On
Versions: 1 2 3 4 5 6 7 8 9 10 11 12 13 14 15 16 17 18 19 20 21 22 23 24 25 26 27 28 29 30 31 32 33 34 35 36 37 38 39 40 41 42 43 44 45 46 47 48 49 50
000
ASUS41 KRLX 180910
RWRRLX
West Virginia Regional Weather Roundup
National Weather Service Charleston WV
400 AM EST THU DEC 18 2014

Note: "fair" indicates few or no clouds below 12,000 feet with no
significant weather and/or obstructions to visibility.

WVZ003-181000-
Northern Panhandle of West Virginia

CITY           SKY/WX    TMP DP  RH WIND       PRES   REMARKS
WHEELING       CLOUDY    27  18  69 W13       30.18F
$$

WVZ009-181000-
Northwest West Virginia

CITY           SKY/WX    TMP DP  RH WIND       PRES   REMARKS
PARKERSBURG    CLOUDY    28  20  71 W8        30.27S
$$

WVZ006-181000-
Western West Virginia

CITY           SKY/WX    TMP DP  RH WIND       PRES   REMARKS
HUNTINGTON     CLOUDY    30  22  72 W5        30.25S
$$

WVZ015-181000-
West Central West Virginia

CITY           SKY/WX    TMP DP  RH WIND       PRES   REMARKS
CHARLESTON     CLOUDY    31  22  69 NW9       30.23S
$$

WVZ022-031-181000-
North Central West Virginia

CITY           SKY/WX    TMP DP  RH WIND       PRES   REMARKS
CLARKSBURG     CLOUDY    28  20  71 NW7       30.19S
MORGANTOWN     CLOUDY    29  17  61 NW7       30.18S
$$

WVZ025-035-042-045-181000-
Southern West Virginia

CITY           SKY/WX    TMP DP  RH WIND       PRES   REMARKS
BECKLEY        CLOUDY    26  19  74 NW13      30.13S
LOGAN          CLOUDY    30  25  80 CALM      30.19S
BLUEFIELD      CLOUDY    28  21  75 NW9G20    30.11S
LEWISBURG      MOCLDY    29  21  73 W5        30.11S
$$

WVZ047-181000-
Northern Mountains of West Virginia

CITY           SKY/WX    TMP DP  RH WIND       PRES   REMARKS
ELKINS         CLOUDY    27  21  78 NW9       30.14R
$$

WVZ052-181000-
Eastern Panhandle of West Virginia

CITY           SKY/WX    TMP DP  RH WIND       PRES   REMARKS
MARTINSBURG    CLOUDY    35  16  45 NW14G26   30.11R
PETERSBURG     PTCLDY    32  19  57 NW9       30.13S
$$


USA.gov is the U.S. government's official web portal to all federal, state and local government web resources and services.